Del Bajio, Mexico

6:21 AM CDT on September 21, 2017 (GMT -0500)
De Guanajuato International

Weather History for MMLO - February, 2013

Change the Weather History Date:

Monday, February 4, 2013

  Actual Average Record
Temperature  
Mean Temperature 66 °F -  
Max Temperature 84 °F 75 °F 84 °F (1999)
Min Temperature 48 °F 44 °F 32 °F (1998)
Cooling Degree Days 1    
Growing Degree Days 16 (Base 50)    
Moisture  
Dew Point 34 °F    
Average Humidity 33    
Maximum Humidity 58    
Minimum Humidity 13    
Precipitation  
Precipitation 0.00 in - - ()
Sea Level Pressure  
Sea Level Pressure 30.05 in    
Wind  
Wind Speed 5 mph ()    
Max Wind Speed 17 mph    
Max Gust Speed -    
Visibility 9.1 miles    
Events      
Averages and records for this station are not official NWS values.
T = Trace of Precipitation, MM = Missing Value Source: Averaged Metar Reports

Daily Weather History Graph

Daily Weather History Graph

Search for Another Location

Airport or City:

Trip Planner

Search our weather history database for the weather conditions in past years. The results will help you decide how hot, cold, wet, or windy it might be!

Date:

Astronomy

Feb. 04, 2013 Rise Set
Actual Time 7:21 AM CST 6:38 PM CST
Civil Twilight 6:58 AM CST 7:01 PM CST
Nautical Twilight 6:32 AM CST 7:27 PM CST
Astronomical Twilight 6:05 AM CST 7:54 PM CST
Moon 1:50 AM CST (2/4) 1:14 PM CST (2/4)
Length of Visible Light 12h 02m
Length of Day
11h 16m
Last Quarter, 37% of the Moon is Illuminated
Feb 4
Last Quarter
Feb 10
New
Feb 17
First Quarter
Feb 25
Full
Mar 4
Last Quarter

Hourly Weather History & Observations

Time (CST) Temp. Dew Point Humidity Pressure Visibility Wind Dir Wind Speed Gust Speed Precip Events Conditions
12:43 AM 53.6 °F 30.2 °F 41% 30.24 in 8.0 mi ENE 3.5 mph - N/A   Clear
2:41 AM 53.6 °F 32.0 °F 44% 29.83 in 8.0 mi NE 6.9 mph - N/A   Clear
4:43 AM 51.8 °F 32.0 °F 47% 30.21 in 8.0 mi Calm Calm - N/A   Clear
5:41 AM 50.0 °F 32.0 °F 50% 29.84 in 8.0 mi NE 6.9 mph - N/A   Clear
6:43 AM 48.2 °F 32.0 °F 54% 30.24 in 8.0 mi Calm Calm - N/A   Scattered Clouds
7:50 AM 50.0 °F 35.6 °F 58% 30.24 in 9.0 mi Calm Calm - N/A   Partly Cloudy
8:46 AM 60.8 °F 39.2 °F 45% 29.95 in 10.0 mi Calm Calm - N/A   Partly Cloudy
9:41 AM 69.8 °F 41.0 °F 35% 30.30 in 10.0 mi Calm Calm - N/A   Clear
10:44 AM 71.6 °F 44.6 °F 38% 30.30 in 10.0 mi WSW 8.1 mph - N/A   Clear
11:51 AM 75.2 °F 42.8 °F 31% 29.87 in 10.0 mi WSW 9.2 mph - N/A   Clear
12:40 PM 78.8 °F 42.8 °F 28% 30.21 in 10.0 mi West 10.4 mph - N/A   Clear
1:44 PM 82.4 °F 35.6 °F 19% 30.18 in 10.0 mi West 17.3 mph - N/A   Partly Cloudy
2:41 PM 84.2 °F 32.0 °F 15% 29.71 in 10.0 mi West 17.3 mph - N/A   Scattered Clouds
3:52 PM 84.2 °F 28.4 °F 13% 30.09 in 10.0 mi West 11.5 mph - N/A   Scattered Clouds
4:42 PM 82.4 °F 28.4 °F 14% 30.09 in 10.0 mi West 15.0 mph - N/A   Scattered Clouds
5:43 PM 78.8 °F 28.4 °F 16% 29.73 in 10.0 mi West 12.7 mph - N/A   Scattered Clouds
6:41 PM 73.4 °F 32.0 °F 22% 30.09 in 10.0 mi WSW 10.4 mph - N/A   Partly Cloudy
7:58 PM 64.4 °F 30.2 °F 28% 30.15 in 8.0 mi West 17.3 mph - N/A   Partly Cloudy
8:44 PM 62.6 °F 26.6 °F 26% 29.83 in 8.0 mi Calm Calm - N/A   Partly Cloudy
9:45 PM 60.8 °F 35.6 °F 39% 30.18 in 8.0 mi Calm Calm - N/A   Clear
11:48 PM 57.2 °F 28.4 °F 33% 29.86 in 8.0 mi South 6.9 mph - N/A   Clear